#timestamp,LO_Frequency,Hit,StdDev 
1704783615.0,286047000.0,N
1704783615.9,286047000.0,N
1704783635.8,286047000.5,N
1704783655.6,286047000.6,N
1704783675.4,286047000.2,N
1704783695.3,286046999.7,N
1704783715.1,286047000.3,N
1704783735.9,286047000.6,N
1704783755.7,286047002.3,N
1704783775.5,286046999.8,N
1704783795.4,286047002.3,N
1704783815.2,286047002.1,N
1704783835.0,286047002.8,N
1704783835.9,286047002.8,N
1704783855.8,286047000.2,N
1704783875.6,286047000.2,N
1704783895.5,286047002.2,N
1704783915.3,286047001.5,N
1704783935.1,286047002.2,N
1704783955.9,286047004.3,Y
1704783975.7,286047002.4,P
1704783995.6,286046999.8,N
1704784015.4,286047002.6,N
1704784035.2,286047002.7,N
1704784055.1,286046999.7,N
1704784056.0,286046999.7,N
1704784075.8,286047000.5,N
1704784095.6,286046999.8,N
1704784115.5,286047002.0,N
1704784135.3,286047002.4,N
1704784155.2,286047002.1,N
1704784175.9,286047001.8,N
1704784195.7,286047002.5,N
1704784215.6,286047004.4,Y
1704784235.4,286047000.6,P
1704784255.3,286046999.9,N
1704784275.1,286047000.5,N
1704784276.0,286047000.5,N
1704784295.8,286046999.8,N
1704784315.7,286047001.0,N
1704784335.5,286047000.6,N
1704784355.3,286047002.8,Y
1704784375.2,286047000.0,P
1704784395.0,286047002.8,P
1704784395.9,286047002.8,N
1704784415.8,286047001.1,N
1704784435.6,286046999.8,N
1704784455.4,286047002.3,N
1704784475.3,286047002.5,N
1704784495.1,286047000.0,N
1704784515.9,286047000.0,N
1704784535.7,286047002.5,N
1704784555.5,286047000.1,N
1704784575.4,286047001.8,N
1704784595.2,286047004.4,Y
1704784615.0,286046999.7,P
1704784615.9,286046999.7,N
1704784635.8,286047000.1,N
1704784655.6,286047001.0,N
1704784675.5,286047000.4,N
1704784695.3,286047000.3,N
1704784715.1,286047002.4,Y
1704784735.9,286046999.7,P
1704784755.7,286047002.4,P
1704784775.5,286047000.5,N
1704784795.4,286047001.1,N
1704784815.2,286047000.0,N
1704784835.0,286047000.2,N
1704784836.0,286047000.2,N
1704784855.8,286047002.3,N
1704784875.6,286047002.6,N
1704784895.5,286047002.7,N
1704784915.3,286047000.6,N
1704784935.1,286047000.3,N
1704784955.9,286047000.6,N
1704784975.7,286047002.6,N
1704784995.5,286047002.4,N
1704785015.4,286047001.9,N
1704785035.2,286047002.2,N
1704785055.1,286047002.4,N
1704785056.0,286047002.4,N
1704785075.8,286047002.7,N
1704785095.6,286047002.6,N
1704785115.5,286047002.7,N
1704785135.3,286047002.3,N
1704785155.1,286046999.7,N
1704785175.9,286047002.0,N
1704785195.7,286047002.6,N
1704785215.6,286047002.0,N
1704785235.4,286047001.3,N
1704785255.2,286047001.3,N
1704785275.1,286047000.0,N
1704785276.0,286047000.0,N
1704785295.8,286047002.7,N
1704785315.7,286047002.7,N
1704785335.5,286047002.5,N
1704785355.3,286047002.3,N
1704785375.2,286047001.6,N
1704785395.0,286047002.5,N
1704785395.9,286047002.5,N
1704785415.8,286047002.1,N
1704785435.6,286046999.7,N
1704785455.4,286047002.8,N
1704785475.3,286047002.7,N
1704785495.1,286047002.8,N
1704785515.8,286047002.3,N
1704785535.7,286046999.7,N
1704785555.5,286046999.9,N
1704785575.3,286047000.1,N
1704785595.2,286046999.7,N
1704785615.0,286047002.7,N
1704785615.9,286047002.7,N
1704785635.8,286047000.9,N
1704785655.6,286046998.7,N
1704785675.4,286046998.1,N
1704785695.3,286047000.9,N
1704785715.1,286047000.7,N
1704785735.8,286047000.1,N
1704785755.7,286047002.7,N
1704785775.5,286047000.5,N
1704785795.4,286046999.9,N
1704785815.2,286047000.4,N
1704785835.0,286047000.4,N
1704785835.9,286047000.4,N
1704785855.8,286046998.1,N
1704785875.6,286047001.1,N
1704785895.4,286047000.2,N
1704785915.3,286047000.5,N
1704785935.1,286047001.2,N
1704785955.9,286047000.8,N
1704785975.7,286047000.0,N
1704785995.5,286046998.8,N
1704786015.4,286046999.0,N
1704786035.2,286046999.1,N
1704786055.0,286046998.7,N
1704786055.9,286046998.7,N
1704786075.8,286046998.8,N
1704786095.6,286046997.4,N
1704786115.5,286046999.3,N
1704786135.3,286046996.8,N
1704786155.1,286046997.3,N
1704786175.9,286046997.6,N
1704786195.7,286046995.6,Y
1704786215.6,286046996.4,P
1704786235.4,286046995.4,N
1704786255.2,286046996.1,N
1704786275.1,286046993.8,Y
1704786276.0,286046993.8,P
1704786295.8,286046998.7,N
1704786315.6,286046998.9,N
1704786335.5,286046997.3,N
1704786355.3,286046995.3,N
1704786375.2,286046999.2,N
1704786395.9,286046997.0,N
1704786415.7,286046997.7,N
1704786435.6,286046995.5,N
1704786455.4,286046995.7,N
1704786475.2,286046994.9,Y
1704786495.1,286047001.1,P
1704786496.0,286047011.9,P
1704786515.8,286046998.1,N
1704786535.7,286047000.7,N
1704786555.5,286046998.2,N
1704786575.3,286047001.0,N
1704786595.2,286046998.7,N
1704786615.9,286046999.5,N
1704786635.7,286047011.9,N
1704786655.6,286046996.9,N
1704786675.4,286046996.7,N
1704786695.2,286046995.1,N
1704786715.1,286046997.1,N
1704786716.0,286046997.1,N
1704786735.8,286046997.6,N
1704786755.7,286046995.8,N
1704786775.5,286046995.4,N
1704786795.3,286046995.6,N
1704786815.2,286046993.8,N
1704786835.0,286046991.7,N
1704786835.9,286046991.7,N
1704786855.8,286046992.2,N
1704786875.6,286046993.4,N
1704786895.4,286046993.8,N
1704786915.3,286046994.7,N
1704786935.1,286046991.7,N
1704786955.8,286046992.1,N
1704786975.7,286046992.1,N
1704786995.5,286046993.1,N
1704787015.4,286046993.1,N
1704787035.2,286046990.4,N
1704787055.0,286046990.8,N
1704787055.9,286046990.8,N
1704787075.8,286046990.1,N
1704787095.6,286046990.1,N
1704787115.5,286046990.9,N
1704787135.3,286046991.3,N
1704787155.1,286046991.3,N
1704787175.9,286046991.1,N
1704787195.7,286046991.0,Y
